Theta_e
346 344 344 343 343 343 342 341 341 340 341 341 342 341 341 341 341 341 340 340 340 339 339 338 338 339 338 339 339 339 338 338 338 337 335 335 334 335 335 336 338 338 338 337 336 335 335 335 336 336 335 334 334 336 337 337 336 334 336 338 339 339 339 340 338 338 335 329 328 331 330 329 330 331 329 329 329 330 332 333 332 332 332 332 332
347 345 343 342 343 342 342 341 341 340 340 341 342 341 341 341 340 340 340 340 340 340 339 339 339 339 339 339 340 339 339 338 338 336 334 334 334 335 336 337 338 339 339 338 338 337 336 336 335 335 336 335 336 337 337 337 336 335 336 338 339 339 340 339 338 337 333 328 328 331 331 329 328 329 329 329 329 331 331 332 332 332 332 332 331
348 346 343 341 341 342 341 341 340 340 340 340 341 341 341 341 341 340 340 340 340 340 339 339 339 339 339 339 339 340 339 338 337 335 335 335 335 336 337 338 339 339 340 340 340 339 338 337 334 333 335 337 337 337 336 336 336 335 336 338 339 339 340 339 338 336 331 327 327 331 333 332 330 328 327 328 329 330 331 331 331 331 331 331 331
347 346 345 342 340 340 340 340 340 340 340 340 341 341 341 341 341 340 341 341 340 340 340 339 339 339 339 340 340 340 339 337 337 336 337 338 338 338 338 339 340 340 341 341 341 339 337 336 334 333 334 337 337 336 336 335 334 335 336 339 339 339 339 338 337 334 331 329 328 329 328 330 335 329 324 325 327 329 330 330 331 331 331 331 330
347 346 344 343 342 340 340 340 340 339 339 340 340 341 341 341 341 341 341 341 341 341 341 340 341 340 340 341 340 340 339 339 339 339 339 340 340 340 339 340 341 341 342 342 341 337 336 335 333 333 335 337 337 337 337 335 333 332 335 339 339 339 339 337 335 331 330 330 329 330 329 332 337 330 324 324 325 328 329 329 331 330 330 330 329
345 345 344 343 342 340 340 339 340 340 339 340 340 341 341 341 341 341 341 341 341 342 342 342 341 341 341 341 341 341 341 340 340 340 340 340 340 341 340 341 341 342 342 342 340 336 335 334 332 332 335 336 336 336 336 336 333 333 336 339 339 339 339 337 334 330 329 329 328 329 329 331 333 328 327 327 323 325 327 328 329 329 329 329 328
345 345 344 343 343 341 340 339 339 340 340 340 340 341 341 341 341 341 341 341 341 342 342 342 342 342 341 341 341 341 341 340 340 340 341 340 341 341 342 342 342 342 342 342 339 335 335 334 332 333 335 335 334 335 336 336 335 335 338 340 339 339 339 337 334 330 328 328 327 326 326 327 329 328 330 330 325 324 324 325 326 326 327 327 325
344 345 344 343 343 342 340 340 340 340 340 340 340 340 341 341 342 341 341 341 341 342 342 342 342 342 342 341 342 341 341 341 340 341 341 341 341 342 342 343 342 342 341 339 337 335 335 333 331 332 335 334 333 333 336 338 337 338 340 340 339 339 339 338 334 331 329 328 327 327 326 326 327 327 327 327 327 325 323 323 323 324 325 324 322
344 344 345 344 342 341 340 340 340 340 340 340 340 341 341 341 342 341 341 341 341 342 342 342 342 342 342 342 342 342 341 341 341 341 341 342 341 341 342 342 342 341 339 337 336 335 335 332 329 331 334 334 333 333 335 339 340 339 339 339 338 338 336 335 334 332 331 329 328 327 326 326 327 327 326 324 324 325 323 322 321 322 321 320 318
343 343 344 344 342 341 341 340 340 340 340 340 340 340 341 341 341 341 341 341 341 342 342 342 342 342 342 342 342 342 341 341 341 341 342 341 341 341 341 341 341 340 338 336 336 335 335 333 329 330 334 334 334 335 337 340 341 339 339 338 337 336 333 331 331 332 331 330 329 327 326 326 326 325 326 324 322 322 322 321 321 321 320 318 316
343 343 344 343 341 341 341 341 340 340 340 339 340 340 341 341 341 341 341 341 342 342 342 342 342 342 342 342 342 342 342 341 341 341 341 341 340 340 339 340 340 339 337 337 337 336 336 334 331 332 335 335 336 337 339 340 340 338 338 339 337 336 335 331 329 331 331 329 329 327 326 326 325 325 325 325 323 322 321 321 320 320 319 318 316
343 344 344 343 342 342 341 340 340 340 340 340 339 340 341 341 341 341 341 341 342 342 342 342 342 342 342 342 342 342 342 342 341 341 341 340 340 339 339 338 338 338 338 338 337 336 336 335 333 333 335 337 337 339 339 339 339 338 338 339 337 336 335 331 329 330 331 330 328 327 326 326 325 325 325 325 324 322 321 320 319 318 317 317 316
343 343 344 343 343 343 341 340 340 340 340 340 340 340 341 341 341 341 341 341 342 342 342 342 342 342 342 342 342 342 342 341 341 341 341 341 341 340 339 339 339 339 339 338 337 336 336 336 334 333 334 336 338 339 340 339 339 338 338 338 336 334 333 331 330 330 330 329 328 326 325 325 325 325 324 324 324 322 321 319 317 316 316 316 316
342 343 343 343 343 343 341 340 340 340 340 340 340 340 341 341 341 341 341 341 341 342 342 342 342 342 341 341 341 341 341 341 341 341 341 341 341 341 340 340 340 340 340 339 338 336 336 336 335 334 333 335 338 340 340 340 338 336 337 337 335 332 331 331 330 330 329 328 327 326 325 324 324 323 323 323 323 322 320 319 317 315 315 316 315
341 343 343 343 343 342 341 341 341 341 340 340 340 341 341 341 341 341 341 341 341 342 342 342 342 342 341 341 341 341 341 341 341 341 341 341 341 341 341 341 340 340 340 340 339 338 336 336 335 335 334 335 338 339 339 339 338 336 335 335 333 331 330 330 330 329 328 327 326 325 324 323 323 322 322 322 321 321 321 320 318 316 315 315 315
338 342 343 343 343 341 340 341 341 341 341 340 340 341 341 341 341 341 341 341 341 341 342 341 342 341 341 340 340 340 340 341 341 340 341 341 341 341 341 340 340 340 340 340 340 339 337 337 336 336 335 335 337 338 338 338 337 335 334 334 332 330 330 330 329 328 327 326 325 324 323 323 322 322 321 320 320 320 321 321 319 317 316 316 315
337 340 342 343 342 341 341 341 342 342 341 340 340 341 341 341 341 341 341 341 341 341 341 341 341 341 341 340 340 340 340 340 341 340 341 341 340 341 340 340 340 340 340 340 340 340 339 338 337 337 336 335 336 337 337 337 337 335 334 334 332 330 330 330 329 328 327 325 324 323 323 322 321 321 320 319 319 320 320 320 320 318 317 317 316
336 339 340 341 342 342 341 341 342 342 341 341 341 341 341 341 341 341 341 341 341 341 341 341 341 340 340 340 340 340 340 340 340 340 341 341 340 340 340 340 340 340 340 340 340 339 339 338 337 337 336 336 337 336 334 334 335 334 332 333 333 330 329 328 328 327 326 324 324 322 322 321 321 320 318 318 318 318 319 320 320 318 317 317 316
335 338 340 341 342 342 341 341 342 342 342 341 341 341 341 341 341 341 341 341 341 341 341 341 341 340 340 340 340 340 340 340 340 340 340 340 340 340 340 340 340 340 340 340 340 339 338 337 335 334 333 335 336 335 333 332 333 333 332 331 331 329 329 327 326 326 325 324 323 322 321 320 319 318 317 317 317 317 317 318 319 318 317 317 315
334 338 340 341 342 341 341 341 342 342 342 342 341 341 341 341 341 341 341 341 341 341 341 341 341 341 340 340 340 340 340 340 340 340 340 340 340 340 340 340 340 340 338 338 339 339 337 335 334 333 332 334 335 334 333 333 332 332 330 329 328 327 327 327 325 324 323 323 322 321 320 319 318 317 317 317 317 317 317 316 317 317 317 317 315
335 338 340 341 342 341 340 341 342 342 342 342 341 341 341 341 341 341 341 341 341 341 341 341 341 341 340 340 340 340 340 340 340 340 340 340 340 340 340 340 340 339 337 338 338 337 336 335 334 333 332 333 334 334 333 332 332 330 328 328 327 326 326 325 324 323 322 322 321 320 319 318 317 317 317 316 316 316 316 315 315 316 315 316 316
335 339 339 341 342 341 341 341 341 342 342 342 341 341 341 341 341 341 341 341 341 341 341 341 341 340 340 340 340 340 340 340 340 340 340 340 340 340 340 340 340 339 339 338 337 336 336 335 333 333 333 333 333 334 334 332 332 330 328 328 328 326 326 325 324 323 322 321 320 319 317 317 316 317 316 316 316 315 315 315 314 313 313 315 316
335 339 340 341 342 341 340 340 341 342 342 342 342 341 341 341 341 341 341 341 341 341 341 341 340 340 340 340 340 340 340 340 340 340 340 340 340 340 340 340 339 339 339 338 337 337 336 334 333 334 334 333 333 334 333 333 331 330 328 328 328 326 326 325 323 322 321 320 319 318 317 317 316 316 316 315 316 315 315 314 313 312 312 313 315
337 339 340 341 342 341 341 341 341 341 342 342 342 342 341 341 341 341 341 341 340 341 340 340 340 340 340 340 340 340 340 340 339 340 340 340 340 340 340 340 339 338 338 337 336 336 335 334 333 334 334 334 334 333 332 332 331 329 328 327 327 326 325 324 323 322 321 320 319 318 318 318 317 316 316 316 316 315 315 314 313 312 312 313 314
339 340 342 342 342 342 342 342 341 341 342 342 342 342 341 341 341 340 341 340 340 340 340 340 340 339 339 339 340 340 340 339 340 340 340 340 340 340 340 340 339 339 338 336 336 336 335 334 333 334 334 334 334 333 332 331 330 328 327 326 326 325 323 323 323 322 321 320 319 318 319 319 318 317 317 317 316 315 314 313 311 311 312 313 313
341 341 342 343 342 343 342 342 341 341 342 342 342 342 341 341 341 340 340 340 340 340 339 339 339 339 339 339 339 340 340 339 340 340 340 340 340 340 340 339 339 338 336 336 336 335 334 334 333 334 334 333 333 333 331 330 329 327 325 326 326 324 322 322 322 321 321 320 319 319 319 319 319 318 317 316 316 315 313 312 310 310 312 313 313
342 341 342 343 342 343 343 342 341 341 342 342 342 342 342 341 341 340 340 340 339 339 339 339 339 339 339 339 339 340 340 340 340 340 340 340 340 340 339 339 339 337 335 335 335 334 333 333 334 334 334 332 331 330 329 330 329 326 325 325 324 322 322 322 322 321 320 320 320 319 319 318 318 318 317 316 315 314 313 312 310 311 313 313 312
341 341 342 343 342 343 342 342 341 340 342 342 342 342 342 341 341 340 340 339 339 339 339 338 339 338 339 339 339 340 340 340 340 340 340 340 339 339 338 338 339 336 334 335 335 334 333 333 333 333 333 332 329 327 327 328 327 325 325 324 322 321 322 322 321 321 320 320 319 319 318 318 317 316 316 315 315 314 313 312 311 312 313 312 312
342 341 342 342 342 343 342 342 341 340 342 342 342 342 342 341 341 340 340 339 339 339 338 338 338 338 338 339 339 339 339 339 340 339 339 339 338 338 337 338 338 336 334 334 333 333 332 332 332 332 332 331 328 326 325 325 325 324 324 322 322 322 322 321 321 321 320 319 319 318 318 317 316 315 314 314 314 313 313 313 312 312 312 312 312
342 341 342 341 341 342 341 342 342 341 342 342 342 342 341 341 341 340 340 339 339 339 338 338 338 338 339 339 339 339 339 339 339 339 338 339 338 338 337 337 338 336 333 332 332 332 332 332 332 331 330 329 328 326 325 324 324 324 322 321 322 322 322 321 321 320 320 319 319 318 317 316 315 314 314 313 313 312 312 313 313 313 313 313 312
342 342 342 341 342 342 341 342 342 341 342 342 342 342 341 341 341 341 340 339 339 339 339 339 339 338 339 340 339 340 339 339 339 338 338 338 338 337 336 336 337 335 332 331 332 331 331 332 331 331 330 329 327 327 326 325 325 324 322 321 322 322 321 321 321 320 320 319 318 317 316 315 314 314 313 313 312 312 312 312 312 313 313 313 313
343 343 342 342 342 341 341 341 340 340 341 341 342 342 341 341 341 341 340 340 340 340 339 339 339 339 340 340 340 340 339 339 339 338 338 337 337 337 336 335 335 334 332 332 332 332 332 332 331 330 330 328 327 326 325 325 325 324 322 321 322 322 321 320 320 320 319 318 316 315 315 313 313 312 311 312 312 312 312 311 311 312 313 312 312
343 342 342 342 341 342 341 340 339 340 341 341 341 341 341 341 341 341 340 340 340 340 339 339 340 340 340 339 339 338 338 339 339 338 338 337 337 336 335 335 335 333 333 333 332 332 332 331 331 330 329 328 326 325 325 325 324 324 322 321 321 321 321 320 320 319 318 317 315 315 314 310 306 304 305 309 311 311 311 311 310 311 312 311 311
341 341 341 341 341 341 339 338 339 340 341 341 341 341 341 341 341 341 340 340 340 340 340 340 340 340 340 339 339 338 338 338 338 338 338 337 336 335 335 335 334 332 333 332 332 332 331 331 330 330 329 328 326 324 324 324 323 323 322 321 321 321 320 320 319 318 317 316 315 313 310 304 299 298 302 307 310 311 311 310 310 310 311 310 310
337 337 338 339 339 339 336 335 338 340 340 341 341 341 341 341 340 340 340 340 340 340 340 340 340 339 339 339 339 338 338 337 336 337 336 335 335 335 334 334 333 333 333 332 331 331 331 330 330 329 329 327 325 324 323 323 323 322 322 321 320 319 319 318 317 316 315 315 313 309 304 299 298 299 302 306 308 309 309 309 309 309 309 309 309
335 335 335 334 334 334 333 333 336 338 339 339 339 340 340 340 341 341 341 341 341 340 340 340 339 339 339 339 338 338 337 336 336 336 335 334 334 335 334 334 333 332 332 332 332 331 331 330 329 329 328 327 325 324 323 323 323 322 322 321 319 318 318 317 315 315 313 312 310 306 302 300 299 298 301 304 306 307 308 308 309 308 308 308 307
332 332 332 332 333 334 334 335 337 338 338 338 339 340 340 340 340 340 340 340 340 340 340 339 339 339 339 338 338 337 336 336 335 335 334 334 334 334 334 333 332 332 332 332 331 331 330 330 329 329 328 327 326 324 323 323 323 322 322 320 318 317 316 315 314 313 311 310 308 305 304 304 302 299 300 302 304 306 307 308 308 307 306 305 304
328 328 328 329 332 334 335 337 337 338 339 340 340 341 340 338 337 337 337 337 337 337 337 337 338 338 338 337 337 336 335 334 334 334 334 335 334 333 333 333 332 332 331 331 330 330 330 329 329 328 328 328 327 325 323 323 322 322 321 319 318 316 314 313 312 311 310 309 308 306 306 307 305 304 304 304 303 303 304 306 306 305 304 303 303
325 326 326 326 328 330 332 334 334 334 336 337 338 337 336 334 333 333 334 334 334 334 335 336 337 338 338 337 336 335 334 334 333 334 334 334 333 332 332 332 331 331 330 331 330 329 328 328 328 328 327 327 327 326 324 323 322 322 321 319 318 316 314 313 312 310 308 308 307 306 306 308 308 307 307 307 305 303 302 303 304 304 302 302 303
324 325 326 326 327 329 329 330 331 332 333 334 334 333 333 332 332 332 333 333 334 336 336 336 337 337 336 335 334 334 333 333 333 334 334 333 332 332 332 331 331 330 330 330 329 328 327 327 326 327 326 326 326 326 325 324 323 322 320 319 317 316 314 313 311 310 309 308 307 307 307 308 308 308 308 309 308 306 303 302 303 303 302 302 303
323 325 326 326 327 328 327 328 329 330 331 332 333 332 332 332 332 332 333 334 336 336 336 335 336 336 335 334 334 334 333 333 334 333 333 332 332 332 331 330 330 330 329 329 328 327 326 325 325 326 326 325 326 325 324 323 322 321 320 318 317 316 315 314 312 311 310 309 309 308 308 308 308 308 308 309 308 307 306 304 303 303 303 304 305
324 325 326 326 326 326 327 327 328 329 330 331 331 331 331 332 332 332 333 334 335 335 335 336 335 335 334 334 334 334 334 334 333 333 332 332 332 331 330 329 329 330 329 328 328 327 326 325 326 326 325 325 325 325 324 323 322 321 319 318 318 317 316 315 313 312 311 311 312 311 309 308 309 308 308 308 308 307 307 306 305 305 305 305 305
325 325 325 325 325 325 325 327 328 329 329 330 330 329 330 331 332 332 333 334 335 335 336 336 335 334 334 334 334 334 334 333 333 332 332 331 330 330 329 329 329 329 328 327 327 327 326 325 325 324 323 324 324 324 323 323 322 321 320 318 318 317 316 315 315 314 313 312 313 312 310 308 309 309 308 307 306 306 306 306 307 307 306 306 305
325 325 325 326 325 325 325 326 328 329 329 330 330 329 329 329 330 331 332 334 334 335 335 335 335 334 334 333 333 333 333 332 332 331 330 329 329 329 329 329 329 329 328 327 325 325 325 324 323 323 322 321 322 322 322 322 322 321 320 318 317 316 315 315 315 315 315 314 313 312 310 309 309 309 307 304 304 305 305 306 306 307 307 306 305
325 325 325 326 325 325 325 325 326 327 328 328 329 328 327 327 327 329 332 333 334 334 334 334 334 333 332 332 332 332 332 331 331 330 329 328 328 328 328 328 328 328 327 326 324 324 324 324 323 321 319 318 319 319 320 320 320 320 318 317 316 315 315 315 315 315 315 314 313 312 311 309 308 306 304 303 303 303 304 305 306 307 308 307 305
323 323 324 324 324 324 324 323 324 326 327 327 328 328 327 326 327 329 331 332 333 333 332 331 332 332 332 332 331 331 331 331 330 330 329 328 328 328 326 326 326 327 327 326 324 324 323 322 321 318 317 317 316 316 317 318 318 317 316 315 315 314 314 314 315 315 314 313 312 312 310 308 305 304 303 302 301 300 301 303 305 306 307 306 305
321 321 322 322 322 321 321 322 322 324 325 326 327 327 327 327 327 328 329 329 330 329 327 326 327 329 329 330 330 330 330 330 329 329 329 328 327 326 325 325 325 325 325 325 324 322 321 320 318 316 316 316 315 315 315 315 315 315 314 314 314 314 314 314 314 314 313 312 311 310 308 306 304 303 301 299 298 298 300 302 303 303 304 305 304
319 320 320 320 320 319 319 320 320 321 323 324 324 325 326 327 327 328 328 328 327 326 325 326 326 327 327 327 328 329 329 328 327 327 327 327 326 325 325 325 325 325 325 324 323 323 322 321 319 316 314 313 313 314 314 314 314 314 314 314 314 313 313 314 313 313 312 311 310 308 306 304 303 302 299 298 298 300 301 302 302 303 303 304 304
318 318 318 318 318 318 318 318 318 318 320 321 322 324 325 326 327 328 328 328 327 326 326 327 328 328 327 326 326 327 327 326 324 324 324 323 323 324 324 323 323 324 325 325 325 325 324 323 322 320 317 314 313 315 315 315 315 315 314 314 314 314 314 313 312 312 312 310 308 306 304 302 301 300 298 298 300 301 302 302 302 303 303 304 303
317 317 317 316 316 316 316 316 316 316 317 318 319 321 324 325 326 327 328 327 326 325 324 325 326 326 326 326 325 324 325 325 324 324 323 321 321 322 323 323 323 323 324 324 324 324 324 324 322 322 320 317 317 318 316 314 313 313 314 314 314 314 313 312 312 311 311 308 306 304 302 301 300 298 298 299 301 302 302 302 302 303 303 303 303
316 315 315 315 315 315 315 314 314 315 315 315 317 319 321 323 325 326 327 326 326 323 321 321 322 323 323 324 324 323 323 324 324 324 323 321 319 319 320 321 322 322 322 322 322 322 322 322 322 322 320 319 318 317 315 313 312 313 313 313 313 312 312 312 311 310 309 306 304 303 301 300 299 298 298 299 301 302 303 302 302 302 302 301 301
Wind_Speed
10 14 19 20 20 22 23 25 26 26 27 30 31 31 32 32 32 33 33 33 33 32 31 31 31 30 28 27 27 26 26 26 27 29 29 27 26 26 27 25 24 23 22 22 22 21 19 17 16 15 16 16 15 15 15 13 12 13 14 14 13 12 10 8 6 5 3 2 2 5 6 6 4 4 4 5 7 8 9 11 11 11 11 10 10
8 11 14 18 20 22 23 25 27 27 28 31 32 32 32 33 34 34 34 33 33 32 31 31 30 29 27 26 25 24 25 26 26 28 29 27 26 26 26 24 24 24 23 22 22 23 22 21 20 18 18 17 16 16 16 15 14 15 15 14 13 12 10 8 7 6 3 3 3 5 7 8 8 6 5 7 9 9 9 11 11 11 12 12 12
9 10 10 16 20 22 23 24 27 28 28 31 32 32 32 33 34 35 34 34 34 33 31 30 29 28 26 25 25 23 24 26 26 26 26 26 25 25 25 24 23 24 23 22 22 22 23 24 23 21 20 18 17 17 17 16 16 16 16 15 14 13 11 9 9 7 5 5 4 3 2 3 5 7 9 8 8 9 9 11 12 12 13 14 13
11 11 10 13 17 20 22 23 25 26 27 30 31 32 34 34 35 34 34 35 34 33 32 31 30 28 27 25 25 24 23 25 25 25 26 26 25 25 25 24 23 23 23 22 21 21 23 24 24 22 21 20 18 17 16 17 17 17 16 16 15 14 12 10 9 8 7 5 3 2 1 2 1 3 9 12 8 9 10 10 12 14 15 15 14
13 13 12 12 14 18 22 23 25 27 28 31 33 35 35 35 35 34 35 35 34 34 33 31 29 28 26 24 24 24 22 23 24 25 26 27 26 26 25 24 24 23 22 21 21 21 22 22 22 21 21 20 18 16 15 16 17 17 16 17 18 16 13 11 9 9 8 7 5 2 2 1 1 3 4 10 10 11 11 11 13 15 15 15 15
12 13 14 13 13 16 20 23 25 27 30 32 35 35 34 34 35 34 35 35 34 35 34 32 29 27 26 24 23 22 20 22 25 26 27 28 27 26 25 25 24 23 22 21 21 21 21 20 20 21 22 20 18 16 15 15 16 17 18 19 19 18 15 12 11 10 9 8 8 6 4 3 4 5 3 4 9 12 12 12 13 14 15 15 16
10 11 12 13 13 14 17 23 27 29 31 32 33 34 34 35 35 35 35 35 35 35 34 33 30 28 28 26 24 23 22 22 24 26 27 27 27 26 26 25 24 24 22 21 21 22 21 20 20 22 23 21 19 17 16 16 16 17 18 20 19 18 16 14 13 12 10 9 8 7 5 4 9 8 4 3 3 7 10 12 13 12 14 17 18
11 10 11 13 13 14 18 24 30 31 31 32 33 35 36 36 36 35 34 34 35 35 35 33 31 29 28 28 27 28 27 25 24 25 25 26 26 26 25 24 24 23 22 22 22 21 20 19 19 21 23 22 20 18 17 16 17 19 19 20 20 19 18 16 14 14 13 11 9 8 6 6 9 9 8 7 4 2 4 8 10 12 15 18 18
13 12 13 13 13 17 23 28 30 31 31 33 35 35 35 35 35 34 34 34 35 36 35 34 33 30 30 30 29 29 28 26 24 24 24 25 25 25 24 24 24 23 23 23 22 21 20 19 19 21 22 22 20 19 17 17 19 20 19 19 18 17 16 15 14 15 14 13 11 10 8 8 8 7 9 8 5 4 2 3 8 11 13 15 16
12 13 13 14 17 22 26 26 26 27 30 32 32 32 33 34 35 34 34 34 35 36 35 35 33 32 32 32 30 28 26 24 23 23 25 25 25 24 24 24 24 24 24 23 22 21 21 20 20 21 22 21 20 19 17 18 19 18 18 17 16 14 13 14 14 13 14 14 13 11 11 10 7 5 7 7 6 5 4 5 8 9 9 10 12
10 11 11 13 17 20 21 21 22 24 26 28 29 31 32 34 35 35 34 34 35 35 35 36 34 34 34 34 32 29 26 24 23 23 24 24 24 24 24 24 24 23 23 23 22 22 22 22 21 22 22 21 20 18 18 18 18 17 18 17 18 17 14 15 16 13 13 14 13 13 13 11 9 7 9 10 7 5 6 7 8 9 10 10 11
9 9 10 10 10 13 15 18 21 23 25 28 30 31 32 33 34 34 33 33 34 35 36 36 35 35 35 35 33 31 28 26 25 25 25 24 24 23 23 23 23 23 23 22 22 22 24 24 23 24 23 22 21 19 18 19 19 19 19 18 19 17 13 15 17 13 13 15 14 13 12 12 11 9 11 13 11 10 13 9 8 11 9 7 12
9 9 9 9 10 11 13 17 21 24 27 30 31 31 32 33 34 34 33 33 33 35 36 36 35 36 36 34 33 31 29 28 27 26 25 25 25 24 24 23 23 23 23 23 23 23 24 25 25 26 25 24 22 20 19 19 19 19 19 18 17 15 13 14 14 12 12 14 13 13 11 11 11 9 10 13 12 14 18 12 9 9 7 8 12
9 9 10 10 11 11 12 17 21 24 27 29 30 31 32 32 34 34 33 33 33 34 36 36 36 37 36 34 33 31 30 29 27 26 25 25 25 25 25 24 25 24 25 25 24 23 25 26 27 27 26 25 23 21 21 22 19 18 19 19 16 14 15 13 12 12 12 12 12 12 11 10 10 9 10 12 11 14 20 18 12 7 7 10 8
8 9 10 11 13 12 13 18 22 24 27 29 30 31 32 32 33 34 33 33 34 34 35 35 36 37 35 33 32 32 31 30 27 26 25 25 25 25 25 25 25 25 25 25 25 25 26 27 28 28 27 25 23 22 23 23 20 17 20 19 16 16 16 13 13 13 12 12 12 11 10 10 9 9 9 9 10 14 19 25 22 11 6 5 4
9 9 10 11 12 12 15 19 22 24 27 28 30 32 32 32 33 34 34 34 34 35 35 35 36 36 34 32 32 31 30 28 27 25 24 25 25 25 25 24 24 24 24 25 26 26 27 27 27 28 27 25 24 25 24 23 19 18 21 20 17 17 17 15 15 13 12 12 11 11 11 10 10 9 9 8 9 12 18 25 27 20 11 4 2
10 10 11 12 12 13 16 21 22 24 26 29 32 35 35 34 34 33 33 33 35 35 35 35 35 34 34 32 31 30 29 28 26 25 25 25 25 25 24 23 23 23 23 24 25 25 27 27 27 27 27 26 25 25 23 21 18 18 22 22 19 19 19 17 16 13 12 12 11 11 11 11 10 9 9 10 11 12 16 23 26 24 19 10 3
12 12 12 12 13 13 17 22 25 28 31 33 36 36 35 34 33 34 33 34 35 34 35 35 35 34 33 32 30 29 28 27 27 26 25 25 25 24 24 23 22 21 21 22 23 25 27 27 26 26 23 22 24 22 18 18 17 18 21 22 20 21 21 18 16 14 13 12 12 12 11 11 11 10 10 12 12 12 15 22 24 23 21 15 9
11 11 10 11 12 14 17 22 26 29 31 33 33 32 30 29 30 32 32 33 33 33 34 34 33 33 33 32 31 29 28 27 26 25 25 25 25 25 24 23 21 20 20 21 24 27 27 25 23 19 13 13 19 19 16 16 17 20 23 23 23 24 22 19 16 15 13 13 13 13 13 12 11 12 12 12 12 11 13 18 22 20 17 15 14
10 10 11 12 13 15 20 25 27 29 29 29 28 28 27 26 27 29 29 30 32 33 33 32 32 33 32 31 30 29 28 27 26 25 25 25 25 25 24 22 21 20 20 22 27 27 25 23 20 16 11 12 16 17 16 17 19 23 25 25 25 23 21 19 16 14 13 13 13 13 13 13 13 14 13 13 12 11 11 13 16 17 15 13 14
10 11 11 13 13 15 20 25 26 26 25 25 25 26 25 25 27 29 30 30 32 33 33 33 33 33 32 31 30 29 28 26 26 25 25 24 25 25 23 21 20 19 19 23 26 24 23 22 19 17 14 15 16 17 18 19 20 24 27 27 25 21 18 16 15 14 14 13 13 14 14 15 15 15 14 13 13 12 10 10 10 11 13 13 13
11 12 12 12 12 13 17 20 21 22 22 23 23 24 24 25 27 29 30 31 32 33 33 33 33 32 31 30 29 28 27 26 25 24 23 23 24 23 22 21 20 20 22 25 23 21 21 20 16 16 15 15 16 18 18 19 22 26 27 27 26 23 20 17 16 15 14 14 14 15 16 16 16 15 14 13 13 11 9 8 8 7 10 13 14
12 12 12 12 12 13 16 19 21 22 23 24 24 24 25 26 27 29 30 31 32 33 33 33 32 31 29 28 27 27 26 25 24 24 22 22 23 22 21 20 18 20 24 24 21 20 20 17 15 15 15 15 16 18 19 20 23 26 28 28 26 25 23 20 19 17 16 16 16 16 17 16 16 15 14 12 11 11 8 6 7 7 8 12 14
10 11 10 10 10 11 12 14 16 19 21 23 24 24 24 25 27 29 30 30 31 31 31 31 30 29 27 26 26 26 25 25 23 23 21 21 21 20 20 18 17 20 23 21 18 18 17 16 16 16 16 16 17 19 20 22 24 27 29 28 26 24 22 21 19 18 17 17 17 18 17 16 16 15 14 12 11 10 9 7 7 7 8 10 12
9 9 9 10 11 11 11 11 14 18 21 23 24 24 25 26 28 29 29 29 30 30 30 29 28 26 25 25 25 25 24 24 22 21 21 20 20 20 19 17 18 21 21 18 17 18 16 15 15 17 18 18 18 20 21 23 26 28 29 27 25 22 21 20 18 17 17 17 17 18 17 16 17 16 13 13 13 12 9 7 7 8 10 10 11
10 11 11 11 12 12 12 12 14 18 21 22 24 24 25 26 27 28 29 28 28 29 28 27 26 25 24 24 24 24 24 23 22 21 20 19 19 19 18 17 20 20 17 16 17 16 14 14 15 17 18 18 18 20 22 24 27 28 28 26 23 20 19 18 17 16 16 16 16 16 15 15 15 14 13 13 13 13 10 8 7 9 11 11 11
11 11 12 12 12 13 14 13 14 18 21 22 24 25 25 25 26 27 28 27 27 27 26 25 25 24 24 24 24 24 23 22 21 20 19 19 18 18 17 18 20 17 13 14 16 13 12 13 14 15 17 16 17 20 22 24 25 26 26 25 22 18 18 17 16 15 15 15 15 14 13 12 11 10 11 13 13 13 11 8 9 11 12 12 11
9 11 12 13 12 12 13 12 13 16 19 19 21 23 24 24 24 24 25 25 25 25 24 24 23 22 22 23 23 23 22 22 21 20 19 18 17 17 16 17 18 15 12 13 13 11 11 13 13 13 14 14 15 18 21 24 24 24 23 22 19 19 20 18 16 15 16 16 15 13 11 9 8 8 10 11 12 11 11 10 11 12 12 11 11
9 11 12 13 13 13 13 12 12 15 17 18 19 21 21 21 21 22 22 23 23 23 22 22 21 21 21 22 22 22 21 21 20 20 19 18 17 16 15 16 16 13 10 10 9 8 9 11 11 11 11 11 13 16 19 23 24 22 19 18 17 18 19 18 17 16 16 15 13 11 9 8 9 9 10 10 9 9 10 12 13 14 13 12 11
10 10 11 11 12 11 11 11 11 14 17 18 19 21 22 22 22 22 22 22 23 22 21 20 20 20 21 21 21 21 20 20 20 19 19 17 16 14 13 14 14 11 7 6 6 5 6 7 8 8 9 10 13 15 17 21 22 19 17 18 18 19 18 17 17 17 16 15 13 12 11 12 12 11 10 10 9 9 10 11 12 13 14 14 13
8 8 8 8 8 8 10 11 11 15 19 20 20 21 22 22 22 23 23 23 24 23 21 21 20 20 21 21 20 20 20 20 20 19 18 17 15 14 14 13 12 10 7 6 6 5 4 5 6 8 9 10 12 15 16 17 16 14 15 18 19 18 18 17 17 17 16 16 15 14 14 13 12 12 11 11 10 10 10 10 11 12 14 14 13
7 7 7 7 8 8 9 8 8 12 15 16 17 19 20 21 22 22 23 23 24 23 22 21 20 20 21 20 20 20 20 19 19 19 18 17 16 15 15 14 11 10 8 6 5 5 5 6 7 7 8 9 11 13 14 14 13 12 14 17 18 17 18 18 16 15 15 15 14 13 12 12 11 12 11 11 12 12 11 10 10 11 13 13 12
7 7 7 7 7 7 7 8 9 12 13 14 15 15 15 17 19 21 22 23 22 22 22 21 21 21 21 20 20 20 19 19 20 20 18 17 17 17 17 15 13 11 8 6 6 6 6 6 7 7 8 9 9 10 12 13 13 13 14 15 17 16 16 17 16 14 14 13 12 11 10 11 11 10 10 11 11 12 12 11 10 11 12 11 11
7 7 7 7 7 8 10 13 15 17 18 18 18 16 15 17 19 19 21 21 21 21 22 21 21 21 21 21 22 21 20 21 21 21 19 18 18 19 18 16 15 13 10 8 8 8 7 7 8 8 8 9 10 11 13 14 14 14 13 14 15 16 16 16 15 14 13 11 9 9 9 9 8 7 8 9 10 11 11 10 10 11 11 10 10
7 8 8 8 8 9 10 14 18 21 23 23 23 23 23 23 22 22 22 22 22 22 22 21 21 22 22 22 22 21 21 20 20 20 20 19 20 20 18 16 15 13 11 10 9 8 8 9 9 7 7 9 11 12 14 14 13 13 14 13 14 16 16 16 15 14 12 10 7 6 6 5 5 5 6 8 9 10 10 10 11 11 11 10 9
7 8 8 9 11 12 13 15 19 22 22 23 24 26 27 27 27 27 27 26 25 25 24 23 24 24 24 23 23 22 21 20 20 20 21 21 21 20 18 16 15 14 13 12 10 9 9 10 10 8 8 9 12 14 16 15 13 13 14 14 15 16 17 17 16 14 12 9 7 6 6 5 5 6 7 7 8 9 10 11 12 12 11 10 10
6 8 12 15 18 21 22 23 25 25 25 25 26 27 28 29 29 29 27 27 27 27 26 26 26 26 26 25 24 23 22 20 20 21 22 23 22 20 18 16 16 17 15 12 11 10 10 11 12 11 10 10 12 16 18 17 14 14 15 16 16 17 18 17 17 15 13 10 9 7 7 6 7 8 8 8 8 9 10 11 12 12 12 11 13
5 7 11 15 20 22 23 25 26 26 28 30 30 31 31 30 28 28 28 26 25 25 24 25 26 27 27 26 25 24 22 21 21 23 24 23 21 20 19 18 18 17 14 11 10 10 11 12 12 11 10 11 13 17 20 18 15 15 16 17 18 18 19 19 18 16 14 12 11 9 7 6 7 8 9 9 7 7 9 11 12 12 12 14 16
8 8 9 12 16 18 20 22 23 22 24 28 30 30 28 24 23 25 26 24 22 23 25 26 27 27 26 26 25 22 21 22 23 24 23 21 20 20 19 19 17 14 12 12 12 13 14 13 9 7 8 10 12 16 19 19 17 16 17 18 20 21 22 21 20 19 17 15 13 11 9 7 7 8 8 8 7 5 5 8 11 12 13 15 15
9 9 10 13 15 16 16 16 18 21 23 25 26 24 21 17 16 18 20 22 24 25 26 27 26 25 25 24 23 21 21 23 24 23 21 19 19 20 20 18 14 11 12 14 15 14 12 10 7 6 8 11 12 15 18 19 19 19 19 20 22 23 24 24 23 22 20 18 16 13 11 9 8 8 8 7 7 6 4 5 8 11 13 14 13
10 11 12 13 13 14 12 10 12 18 22 24 25 22 18 16 15 15 17 22 26 26 25 24 23 22 23 22 21 21 22 23 23 21 19 17 18 19 17 15 13 13 15 15 15 12 10 8 7 7 10 12 12 14 18 20 20 20 20 21 23 24 25 24 24 23 21 20 18 15 13 12 10 9 8 7 7 7 6 6 7 9 10 11 9
11 13 14 14 14 14 14 11 8 11 15 18 19 17 16 17 16 14 15 18 21 22 23 22 21 21 22 22 23 23 22 21 21 20 18 18 18 17 15 14 16 17 17 15 14 12 11 10 9 9 10 11 12 13 16 19 22 22 22 24 24 24 24 24 24 24 22 20 18 16 14 13 12 10 9 7 6 6 7 8 8 8 8 7 7
10 12 15 16 15 14 15 14 11 9 8 10 11 11 13 15 15 13 14 15 18 20 22 22 22 22 22 23 23 23 22 21 21 19 19 19 19 16 15 16 19 18 16 15 15 15 14 13 12 11 11 11 12 13 15 18 21 23 24 25 25 24 24 24 23 22 21 20 18 16 15 14 13 11 8 5 4 5 7 9 11 12 10 8 8
10 12 15 17 16 14 16 16 14 11 9 9 10 11 11 11 12 14 16 16 17 19 20 22 22 22 22 23 23 22 21 21 20 18 19 19 18 17 17 18 19 18 17 16 16 16 16 15 14 13 13 13 13 14 15 17 20 23 25 26 25 24 23 23 21 20 19 19 18 17 16 14 13 11 8 5 4 4 5 7 9 12 12 10 8
13 14 16 17 17 17 18 19 17 15 13 10 10 11 10 8 8 11 14 15 16 18 19 21 23 22 21 21 21 21 21 19 17 17 18 19 19 19 19 19 18 18 18 17 17 17 17 17 16 15 14 13 13 13 14 16 19 22 25 25 25 23 22 21 20 18 18 18 19 18 16 14 13 11 9 6 4 3 3 4 6 8 10 10 8
15 16 17 18 19 20 19 19 18 17 16 14 11 11 11 8 7 9 10 11 14 16 17 18 21 23 23 22 21 20 18 17 17 17 18 19 20 21 20 19 18 18 17 17 18 18 18 17 16 14 14 13 12 12 13 15 18 21 24 24 23 21 19 18 18 18 18 19 18 17 16 15 13 12 9 7 5 3 4 4 5 6 8 9 8
15 17 20 20 19 18 17 18 19 18 18 18 15 13 12 10 8 8 7 8 10 9 8 8 10 13 16 19 21 19 17 16 17 17 17 17 18 19 19 19 18 18 17 17 18 18 17 16 14 14 13 13 12 12 13 15 17 20 22 22 21 19 19 19 19 19 20 19 18 17 16 16 14 12 9 9 7 6 6 6 6 7 8 8 7
19 22 23 21 19 18 18 18 18 18 20 21 18 16 14 12 10 9 8 8 9 8 8 8 8 7 9 12 16 18 17 16 15 15 15 14 15 16 17 17 17 17 18 18 18 19 18 16 15 15 14 14 13 14 15 16 17 20 21 20 19 19 20 21 21 21 21 19 18 18 18 16 15 13 11 11 11 9 9 8 7 7 6 6 6
20 23 24 22 21 20 21 20 18 20 23 23 21 19 16 14 13 11 10 10 10 10 10 10 9 8 8 10 13 16 18 17 15 14 13 12 11 11 13 13 13 14 15 16 18 19 19 18 17 16 15 15 15 15 16 16 16 18 20 20 19 20 21 22 22 23 22 21 21 21 19 17 15 13 12 13 12 11 10 9 10 11 12 11 11
19 22 24 24 23 23 24 22 21 24 27 26 25 22 18 16 14 12 11 12 12 13 13 12 11 11 11 12 12 14 17 18 16 15 14 13 10 9 9 9 9 10 12 13 15 16 16 16 16 15 13 13 12 12 13 16 16 17 17 17 17 18 20 21 22 22 22 23 24 23 20 17 16 14 14 14 13 12 11 12 13 12 11 10 9
18 21 22 22 23 24 25 23 22 25 27 27 28 26 22 18 16 14 12 12 13 15 16 14 12 12 12 13 14 14 15 16 15 14 14 13 12 10 8 7 6 7 8 9 10 11 12 12 12 11 11 12 10 9 12 17 18 17 16 15 15 16 18 20 22 22 23 24 25 24 20 17 16 15 15 16 15 12 12 13 13 11 9 9 9
Wind_Direction
179 174 177 174 173 173 174 174 174 175 177 178 180 183 184 185 188 191 193 193 193 193 193 194 196 197 200 202 204 206 208 210 213 218 221 221 218 217 219 220 221 222 224 224 225 224 224 226 229 237 241 239 240 240 238 242 237 228 226 226 227 225 221 223 225 218 205 174 65 57 85 99 106 142 142 133 138 144 154 158 160 162 162 161 160
151 162 166 166 169 171 172 173 174 175 177 180 182 184 185 187 189 191 191 192 193 194 194 195 197 197 198 200 201 204 207 210 213 217 219 219 218 218 220 220 222 224 226 227 230 229 230 231 232 238 242 240 241 241 241 244 240 232 228 226 225 224 224 222 217 211 185 161 118 85 86 86 81 90 114 134 141 145 158 163 163 165 162 159 160
155 164 161 166 169 169 171 175 179 179 178 182 184 185 186 189 191 191 190 191 193 194 195 196 199 199 199 200 200 202 207 213 216 216 217 218 219 219 220 221 223 227 229 231 235 236 236 236 235 238 239 238 241 244 245 244 240 233 229 230 225 218 220 219 218 211 179 148 121 103 103 88 64 61 73 90 124 138 147 158 162 161 158 158 160
167 170 167 168 166 169 174 178 180 179 179 183 185 186 189 191 193 191 190 191 193 194 196 198 200 201 202 204 204 205 210 215 217 219 219 220 220 219 220 222 226 231 234 236 238 239 238 237 237 237 235 235 242 248 250 246 240 234 231 232 226 215 213 213 213 208 191 175 138 98 127 129 79 58 63 59 85 123 126 142 157 157 157 158 155
172 171 171 169 168 175 179 178 178 180 184 185 187 189 191 192 193 191 190 191 193 195 197 199 198 199 200 201 203 205 210 213 215 219 221 222 221 220 220 222 229 236 238 241 240 238 238 239 239 235 232 237 244 250 256 251 240 236 235 232 227 220 214 208 201 196 193 196 191 155 135 141 194 181 94 53 62 95 111 133 147 153 157 157 149
176 173 172 173 174 176 176 177 180 184 189 189 190 191 191 193 193 192 191 191 193 196 198 198 196 196 194 193 193 196 203 209 211 215 218 220 222 222 221 224 231 237 240 242 240 238 239 242 239 230 230 239 246 251 257 251 239 237 236 232 230 225 219 210 195 186 182 194 206 203 208 213 176 166 150 57 61 76 96 123 139 148 152 150 144
178 177 173 174 173 172 175 180 185 189 191 190 191 192 192 194 193 192 191 190 193 196 197 197 196 195 195 195 195 197 205 211 213 217 220 221 223 224 225 227 232 236 239 240 239 239 241 245 240 229 230 240 244 246 250 248 240 236 234 235 234 229 223 215 197 185 175 178 196 201 212 199 171 167 167 153 98 67 82 105 125 142 145 142 140
175 178 177 178 176 176 180 185 191 191 190 189 190 192 193 194 194 193 192 191 193 196 197 198 198 196 196 199 202 205 210 214 217 219 223 225 225 226 226 229 233 236 237 238 237 238 241 246 242 231 231 238 240 241 247 247 239 233 233 237 238 230 226 222 205 193 185 179 178 182 186 173 170 177 173 156 133 89 85 94 112 128 136 137 136
174 178 179 182 180 184 187 190 193 190 187 189 191 192 192 193 193 192 192 191 193 196 197 200 201 199 200 202 206 209 211 214 217 219 223 226 227 226 226 227 231 234 236 238 238 238 240 245 243 233 231 237 237 238 244 245 238 236 237 237 237 233 233 233 217 203 201 196 187 182 174 164 164 173 172 156 124 129 154 119 119 121 123 130 134
180 181 181 184 186 189 190 189 189 188 188 190 190 190 190 191 192 192 193 192 193 196 197 200 202 203 204 206 208 208 209 211 213 216 220 223 224 224 224 224 227 231 235 238 239 238 237 242 242 235 233 236 236 237 241 242 240 239 236 232 236 241 246 249 237 218 212 208 200 191 176 165 159 161 173 163 126 112 129 151 150 138 128 129 136
183 183 184 190 187 184 182 181 183 184 186 187 188 190 189 190 191 192 192 192 192 195 197 201 203 205 208 209 210 209 207 206 206 209 213 216 218 219 220 221 224 228 234 239 240 238 236 238 240 238 237 238 238 239 241 243 244 239 234 233 237 238 239 244 240 224 211 207 205 203 196 189 186 193 198 187 163 128 129 147 157 146 135 139 148
180 180 185 185 171 167 170 175 176 177 182 186 188 189 189 190 191 191 192 191 192 194 196 200 202 206 209 210 211 210 208 206 205 206 207 210 212 214 216 218 221 226 232 238 240 239 237 236 238 238 239 240 240 241 243 248 249 242 238 237 238 237 229 231 232 221 209 206 205 208 210 209 207 212 213 204 195 168 150 146 151 144 129 139 157
181 179 181 176 167 169 172 171 171 175 182 186 188 188 189 190 190 190 191 190 191 193 196 199 202 206 209 210 211 211 211 211 209 207 207 209 211 212 214 216 220 225 231 237 240 240 239 238 239 239 240 241 241 241 244 246 244 242 239 234 232 230 218 219 225 219 212 211 210 209 208 210 212 218 215 208 202 172 152 143 151 150 133 144 161
186 181 179 176 178 179 174 171 174 180 184 185 186 187 188 190 190 190 190 189 191 193 196 199 203 207 210 211 211 212 213 214 213 210 208 210 212 214 217 219 223 228 233 239 242 242 242 242 243 242 242 241 239 238 239 241 240 242 240 232 223 217 209 210 218 216 210 210 212 211 206 206 207 205 203 202 200 180 161 149 143 131 124 143 160
190 185 182 182 183 179 173 175 179 181 183 183 186 188 189 190 190 189 189 189 190 193 195 199 203 208 211 211 212 213 215 215 214 214 212 213 215 217 221 224 228 234 239 242 245 244 245 245 245 244 242 239 236 235 237 237 235 233 234 230 220 212 208 207 212 213 211 208 207 207 201 196 192 186 190 199 203 197 181 165 153 137 126 150 163
191 187 188 188 184 178 175 179 181 182 182 184 186 188 190 191 190 190 189 188 190 192 195 199 203 207 210 211 212 212 213 213 213 214 216 218 221 223 225 229 233 239 242 245 246 247 248 247 246 245 241 236 234 235 238 238 232 222 221 222 217 211 208 208 209 209 208 205 200 199 195 188 183 182 184 194 198 200 195 181 169 159 152 155 175
190 189 189 186 181 180 180 180 181 181 182 186 189 190 192 191 189 189 189 189 191 193 195 199 202 206 209 211 212 211 211 212 213 215 219 222 226 228 231 234 238 242 245 247 249 251 254 252 249 246 240 235 234 233 234 237 234 221 214 216 216 211 208 206 204 203 201 199 195 192 190 184 179 179 184 194 199 198 196 191 185 179 169 156 148
190 189 186 184 180 179 180 181 184 184 185 189 192 193 193 191 189 187 188 189 191 193 195 199 202 205 208 210 211 211 212 214 217 220 222 224 226 228 232 235 239 244 247 248 250 252 254 254 251 247 238 234 238 233 222 219 222 220 216 216 214 207 204 201 198 197 195 193 191 185 184 183 178 179 182 188 193 192 192 193 193 189 181 172 162
187 183 179 181 181 179 179 183 186 187 189 191 192 192 191 190 189 187 188 190 192 194 196 200 202 204 207 210 211 212 214 216 219 221 223 225 228 231 234 235 241 246 245 245 250 250 250 252 253 250 236 230 239 235 218 207 206 212 215 213 208 203 201 196 190 192 192 189 188 183 182 182 177 176 176 178 180 175 178 189 193 193 193 190 176
180 175 178 180 180 182 182 183 185 186 188 189 188 188 187 186 186 186 188 190 192 195 197 200 203 205 208 209 210 212 214 217 220 221 224 227 231 234 236 238 244 243 237 241 250 250 249 253 258 256 237 229 239 237 227 216 204 202 204 201 197 196 196 191 184 185 187 187 189 186 183 182 177 175 173 172 176 171 168 177 186 194 200 202 187
176 174 179 180 177 181 184 183 183 182 183 184 184 183 182 181 182 185 188 190 193 196 199 201 203 206 208 208 209 211 214 218 220 222 226 229 233 236 237 242 245 241 240 247 251 252 252 254 259 260 244 228 233 234 228 221 209 200 197 195 191 189 191 191 183 182 183 186 190 187 182 181 178 178 174 170 169 169 170 171 175 187 194 196 193
180 179 178 177 175 176 178 176 174 173 176 179 179 178 177 179 182 185 188 191 194 196 199 202 204 205 207 207 208 211 214 217 219 221 225 229 234 236 238 243 243 241 250 255 253 253 255 253 255 261 250 227 225 229 225 220 211 201 196 195 193 189 190 193 188 184 183 184 188 186 181 179 179 180 175 169 168 168 173 181 181 186 187 187 189
181 180 176 173 172 170 169 168 169 173 175 175 175 175 178 180 182 185 189 193 195 197 200 202 204 204 205 205 207 210 213 215 217 220 224 230 235 237 240 243 240 243 251 252 251 254 256 256 256 255 248 234 228 228 223 216 209 202 197 195 193 190 190 190 187 185 184 183 186 186 182 179 180 180 174 169 171 173 174 179 179 181 184 183 188
180 178 172 164 162 162 164 167 170 172 173 174 174 174 177 180 183 186 191 193 195 197 199 201 203 202 202 203 205 208 211 213 216 219 224 231 236 237 241 241 237 247 254 251 250 254 257 258 255 248 244 239 234 227 220 214 208 202 198 193 191 191 191 189 186 184 183 185 188 189 187 185 186 185 179 176 178 179 178 178 178 178 180 180 184
173 168 159 153 157 161 166 171 172 173 174 174 173 174 177 181 185 188 191 193 195 197 198 200 200 199 199 200 203 207 210 212 215 220 225 231 235 238 241 240 240 248 253 252 253 257 261 258 251 248 244 237 234 230 221 213 206 198 193 191 190 191 190 187 184 183 184 187 191 193 191 191 194 192 186 185 187 185 181 182 185 180 176 173 173
170 163 157 160 164 168 171 172 173 174 174 173 173 174 178 183 186 189 190 191 193 195 197 197 197 196 196 198 202 206 209 212 216 220 225 230 234 238 240 241 246 246 244 250 255 256 259 258 254 254 246 233 232 231 221 212 205 195 189 188 188 189 189 187 182 182 186 189 193 195 194 193 197 198 195 194 193 189 185 184 184 178 171 166 165
169 163 161 165 169 172 172 172 175 175 174 173 173 174 178 182 186 188 189 189 190 192 193 194 194 194 195 197 201 207 210 213 217 221 226 229 232 236 237 242 249 245 235 246 253 251 253 254 253 253 246 235 228 218 211 209 204 194 187 184 183 184 188 187 182 182 187 192 194 194 194 194 198 204 207 205 200 193 188 185 180 175 173 169 164
168 165 166 167 170 173 172 172 172 169 168 169 171 175 180 183 183 183 185 185 186 188 189 189 190 190 193 198 203 207 210 212 216 219 223 225 229 233 235 243 251 246 234 245 254 254 254 248 243 244 245 241 224 204 199 200 196 188 185 183 179 181 185 182 179 184 188 190 191 191 193 200 207 215 219 216 210 204 196 188 181 179 182 183 178
169 171 171 170 171 172 170 169 164 160 160 162 167 173 177 178 178 178 180 182 183 183 183 184 185 187 193 200 204 207 208 210 213 216 218 220 225 229 230 240 251 248 237 246 256 257 250 241 236 238 244 241 222 203 194 193 190 186 185 185 180 180 186 183 178 182 186 187 190 195 202 212 215 215 218 218 218 218 211 201 195 193 195 197 193
171 175 175 173 171 168 165 161 158 158 161 162 166 171 172 173 173 174 178 180 180 180 179 180 182 186 194 200 203 206 207 209 212 213 215 216 217 221 221 230 245 246 230 223 228 229 237 242 242 242 244 237 222 210 198 191 193 193 188 184 180 181 187 187 181 181 186 190 196 202 206 210 212 213 216 216 216 219 220 218 215 212 209 206 198
158 165 166 159 153 151 156 161 163 165 166 166 167 168 167 168 170 172 175 176 176 176 176 178 180 185 193 199 203 206 207 209 212 212 213 212 210 213 210 214 231 233 203 189 197 204 224 245 245 243 245 238 224 216 205 196 199 203 192 183 181 183 186 188 188 188 188 191 194 198 204 209 215 220 221 218 215 215 217 220 222 220 217 215 210
138 146 148 142 142 145 150 154 151 154 159 160 160 160 163 166 167 169 170 170 173 174 173 176 180 186 193 199 204 207 207 210 211 211 210 207 206 204 197 196 209 209 191 185 196 204 217 231 235 238 242 239 227 216 209 206 206 203 195 189 187 187 188 188 189 189 189 190 191 197 209 218 227 232 229 222 216 213 213 216 217 216 214 217 221
122 128 126 123 124 124 123 118 118 129 139 145 148 149 153 158 160 161 163 165 167 169 170 174 180 187 194 201 207 208 209 211 211 209 207 204 201 196 189 189 194 191 185 187 194 203 215 223 226 232 236 235 225 208 202 203 203 199 198 196 192 189 190 189 187 188 189 191 195 207 223 232 237 237 229 222 216 211 208 210 212 211 208 208 212
109 116 116 114 112 109 114 119 122 128 133 139 142 139 137 144 148 151 156 159 162 165 169 174 181 190 198 204 206 206 207 208 205 203 204 202 196 191 186 185 182 177 177 184 192 202 212 217 220 226 233 233 221 204 197 198 198 198 201 202 197 192 190 188 186 188 191 193 202 222 237 240 236 227 216 213 212 209 207 207 207 204 200 197 195
97 103 106 109 112 111 112 118 124 131 135 139 142 141 140 143 146 150 156 161 163 166 171 178 187 194 198 201 203 205 206 204 197 196 199 196 190 186 182 179 177 177 180 183 189 203 210 212 212 212 222 226 217 205 199 197 199 199 199 200 199 193 189 185 183 185 189 193 203 219 225 220 205 191 194 201 204 205 202 196 192 188 185 182 179
108 110 111 109 108 108 108 113 120 126 130 134 138 140 141 146 154 161 166 168 170 173 178 183 188 192 196 199 201 202 203 201 196 194 193 189 185 183 179 179 179 180 181 180 184 199 206 203 199 196 206 215 213 207 201 198 200 204 201 198 197 194 188 183 181 182 184 186 189 190 183 172 161 160 168 181 190 192 188 182 178 174 173 171 165
102 112 120 121 122 121 122 125 128 131 135 138 142 146 150 156 164 167 167 170 174 178 182 185 187 192 196 199 199 198 197 198 198 194 188 185 185 182 180 181 179 174 173 175 180 194 202 198 192 193 201 207 209 207 204 203 206 207 201 195 193 193 188 183 180 180 180 179 177 175 167 155 146 143 146 158 175 184 185 182 177 173 170 164 152
64 99 115 123 130 132 135 139 142 145 150 153 156 160 163 166 169 168 168 172 176 180 183 185 190 195 196 196 196 196 198 199 197 191 184 183 185 184 181 181 176 169 166 170 180 191 198 195 189 188 197 207 211 209 207 209 212 209 202 195 192 191 187 184 181 180 180 179 174 171 167 157 151 144 137 140 153 173 187 186 180 173 167 158 150
52 80 100 113 124 130 135 141 145 150 157 160 162 164 166 170 173 171 169 171 176 182 186 191 195 196 195 195 195 197 201 198 190 185 182 183 185 183 178 173 167 162 165 177 188 190 185 179 175 181 198 208 214 211 210 212 213 210 203 197 194 192 188 186 185 182 181 181 177 174 171 164 159 154 146 141 143 154 179 186 182 175 165 159 156
50 73 95 108 118 124 129 139 150 156 160 162 161 161 163 169 175 174 170 172 182 190 193 194 195 193 192 192 192 195 194 188 181 179 179 180 180 176 170 164 159 162 173 182 184 179 167 159 167 194 204 208 215 213 209 210 212 210 207 201 197 195 192 189 188 185 182 181 181 180 177 171 166 165 162 160 163 165 169 177 180 177 169 163 162
66 81 92 100 104 108 112 127 152 160 161 163 161 160 161 166 174 181 182 184 188 191 191 190 190 190 189 188 188 190 187 180 176 175 172 174 176 172 167 162 163 170 174 172 167 159 149 154 184 207 206 208 217 216 209 208 208 207 207 205 202 201 200 195 191 188 186 186 184 183 181 176 171 172 174 177 183 188 192 193 188 181 174 171 172
74 85 89 89 85 87 91 98 128 155 165 168 163 158 159 163 174 191 197 192 189 186 185 186 187 188 187 184 183 186 185 181 178 175 171 172 175 174 172 171 172 173 168 162 160 161 162 173 194 209 211 210 214 214 210 208 206 205 207 209 210 210 208 202 195 191 191 191 189 185 183 179 175 178 184 192 203 213 218 218 214 205 197 197 207
65 77 86 88 82 78 79 82 98 121 143 160 153 141 148 159 171 189 197 194 190 188 186 185 184 185 183 180 179 181 182 181 179 175 173 173 173 175 177 177 176 171 165 164 169 171 171 177 189 200 207 211 212 212 209 208 208 208 209 210 213 215 213 208 204 200 197 196 194 188 183 181 179 179 182 189 205 222 231 232 228 225 221 223 226
59 69 83 88 84 78 74 74 82 94 106 133 142 137 142 153 163 177 186 189 190 189 186 183 183 183 181 178 176 177 180 180 177 175 175 174 175 177 177 178 176 172 168 169 173 174 175 180 188 195 199 204 209 210 209 209 210 210 210 211 213 215 214 212 211 210 206 202 196 190 186 184 180 174 169 170 184 205 231 244 239 231 226 227 229
60 63 73 81 82 80 74 70 74 83 90 105 130 140 135 126 138 163 176 182 186 187 186 182 180 179 176 174 173 175 178 177 174 175 174 173 176 176 174 175 177 174 173 173 175 181 186 188 190 193 193 196 204 208 209 209 210 209 209 210 211 212 213 212 212 214 211 204 197 192 187 179 172 167 165 164 166 181 212 237 239 228 223 224 231
58 59 64 69 72 72 71 68 70 78 88 96 112 125 120 113 131 154 167 176 182 185 184 178 175 174 173 171 168 170 173 174 175 178 175 175 178 177 173 175 177 177 179 182 184 189 192 192 191 190 189 193 200 205 207 207 205 204 205 207 208 209 208 207 209 210 205 199 194 189 180 169 161 160 158 150 143 153 187 203 209 210 212 220 229
55 61 63 64 63 63 63 63 63 69 81 89 97 106 111 123 140 145 150 162 164 159 146 135 143 155 161 163 164 165 169 172 177 180 179 178 180 179 174 174 176 178 183 188 190 193 195 192 186 182 186 193 197 200 202 199 197 197 198 200 202 200 196 197 201 200 194 188 181 173 167 162 157 153 146 137 134 144 164 178 191 206 216 224 225
56 61 64 63 60 59 60 59 58 64 73 79 85 92 105 122 132 133 138 135 118 105 101 103 106 113 130 150 159 163 166 167 169 171 170 170 178 183 180 179 181 185 189 192 195 199 202 201 193 185 183 183 189 199 203 199 197 195 192 190 189 188 189 193 193 188 182 174 167 162 160 159 157 154 148 143 143 150 156 162 169 172 167 155 147
59 62 64 63 61 60 60 56 55 61 66 68 71 77 87 101 112 124 133 124 113 112 120 125 129 134 144 155 159 162 165 163 157 150 144 143 157 173 176 174 179 189 198 204 208 211 213 213 208 202 193 187 195 207 208 203 202 199 194 191 189 188 190 190 189 184 175 165 161 162 161 159 157 155 153 151 152 153 150 148 147 140 128 120 118
58 63 63 62 63 62 60 56 53 58 61 61 62 67 74 83 93 105 112 112 115 116 114 115 123 134 147 157 159 159 159 157 154 147 137 128 129 141 156 164 175 190 205 215 221 224 226 222 216 213 211 211 221 224 209 198 195 192 192 194 194 191 189 187 184 181 173 164 161 161 162 161 159 159 160 161 160 156 149 143 142 139 132 123 119
55 61 60 58 60 61 59 55 53 56 58 57 57 60 66 74 83 90 94 99 105 103 100 105 117 125 138 151 154 154 151 147 148 148 142 134 126 119 125 147 171 191 207 217 225 232 237 234 226 222 221 225 233 226 200 191 187 184 187 190 189 188 189 187 185 180 170 163 160 160 162 164 162 162 166 167 164 159 151 141 133 129 123 116 113